Location: Winthrop
(48.4780°N, 120.1850°W)
Time: 18:44:18
(UTC-08:00)

Envisat - Pass Details

Date: 29 November 2022
Orbit: 763 x 765 km, 98.2° (Epoch: 05 February)

Event Time Altitude Azimuth Distance (km) Brightness Sun altitude
Rises 16:49:00 0° 217° (SW) 3,219 7.5 -6.6°
Reaches altitude 10° 16:52:28 10° 242° (WSW) 2,300 7.3 -7.2°
Maximum altitude 16:55:04 14° 273° (W) 2,037 6.3 -7.6°
Drops below altitude 10° 16:57:41 10° 304° (NW) 2,310 5.9 -7.9°
Sets 17:01:12 0° 330° (NNW) 3,243 6.3 -8.5°
